Date String (YYYY-MM-DD hh:mm:ss) UTC,Instrument flags,Ambient pressure (hPa),Sample flow (lpm),Bypass flow (lpm),Sample temperature (°C),Ambient temperature (°C),ASC tube jacket temperature (°C),LED temperature (°C),Box temperature (°C),Sample RH (%),Span deviation,Mass concentration (μg/m³),Mass concentration (μg/m³),Mass concentration (μg/m³)
DateTimeUTC,F1_M11,P_M11,Q1_M11,Q2_M11,T1_M11,T2_M11,T3_M11,T4_M11,T5_M11,U1_M11,ZSPAN_M11,X0_M11,X2_M11,X1_M11
2021-11-16 14:00:00,,0817.4,4.99,0.00,28.7,27.6,00.0,37.8,30.4,08.1,0000.0,0002.05,0000.66,0000.28
2021-11-16 14:01:00,,0817.5,5.01,0.00,28.7,27.6,00.0,37.8,30.4,08.2,0000.0,0002.69,0000.67,0000.29
2021-11-16 14:02:00,,0817.6,5.01,0.00,28.7,27.6,00.0,37.8,30.4,08.1,0000.0,0002.83,0000.67,0000.29
2021-11-16 14:03:00,,0817.6,5.00,0.00,28.7,27.7,00.0,37.8,30.4,08.4,0000.0,0002.80,0000.66,0000.29
2021-11-16 14:04:00,,0817.7,5.00,0.00,28.7,27.7,00.0,37.8,30.4,08.5,0000.0,0002.85,0000.67,0000.29
2021-11-16 14:05:00,,0817.5,5.00,0.00,28.7,27.7,00.0,37.8,30.4,08.4,0000.0,0002.76,0000.64,0000.29
2021-11-16 14:06:00,,0817.6,5.00,0.00,28.7,27.7,00.0,37.8,30.3,08.1,0000.0,0002.72,0000.63,0000.29
2021-11-16 14:07:00,,0817.5,5.00,0.00,28.7,27.7,00.0,37.7,30.4,08.3,0000.0,0002.77,0000.65,0000.29
2021-11-16 14:08:00,,0817.4,5.01,0.00,28.7,27.7,00.0,37.7,30.4,08.3,0000.0,0002.88,0000.67,0000.29
2021-11-16 14:09:00,,0817.6,4.99,0.00,28.7,27.6,00.0,37.7,30.4,08.4,0000.0,0003.00,0000.68,0000.30
2021-11-16 14:10:00,,0817.5,5.00,0.00,28.7,27.6,00.0,37.7,30.4,08.3,0000.0,0002.90,0000.62,0000.29
2021-11-16 14:11:00,,0817.5,5.00,0.00,28.7,27.6,00.0,37.7,30.4,08.4,0000.0,0002.90,0000.58,0000.27
2021-11-16 14:12:00,,0817.5,5.00,0.00,28.7,27.6,00.0,37.7,30.4,08.4,0000.0,0002.37,0000.58,0000.27
2021-11-16 14:13:00,,0817.5,4.99,0.00,28.6,27.6,00.0,37.7,30.4,08.4,0000.0,0002.27,0000.58,0000.28
2021-11-16 14:14:00,,0817.5,5.01,0.00,28.6,27.7,00.0,37.7,30.4,08.4,0000.0,0003.01,0000.58,0000.27
2021-11-16 14:15:00,,0817.5,5.00,0.00,28.6,27.7,00.0,37.7,30.4,08.4,0000.0,0002.97,0000.55,0000.27
2021-11-16 14:16:00,,0817.3,4.99,0.00,28.6,27.6,00.0,37.7,30.4,08.2,0000.0,0002.98,0000.56,0000.28
2021-11-16 14:17:00,,0817.3,5.01,0.00,28.6,27.6,00.0,37.7,30.4,08.2,0000.0,0003.04,0000.58,0000.28
2021-11-16 14:18:00,,0817.4,5.00,0.00,28.6,27.6,00.0,37.7,30.3,08.3,0000.0,0003.26,0000.61,0000.28
2021-11-16 14:19:00,,0817.4,4.99,0.00,28.6,27.6,00.0,37.7,30.3,08.4,0000.0,0003.22,0000.59,0000.27
2021-11-16 14:20:00,,0817.4,4.99,0.00,28.6,27.7,00.0,37.7,30.4,08.5,0000.0,0003.46,0000.60,0000.27
2021-11-16 14:21:00,,0817.4,5.00,0.00,28.6,27.6,00.0,37.7,30.4,08.5,0000.0,0003.44,0000.62,0000.28
2021-11-16 14:22:00,,0817.3,5.00,0.00,28.6,27.6,00.0,37.7,30.4,08.5,0000.0,0002.75,0000.60,0000.28
2021-11-16 14:23:00,,0817.3,5.01,0.00,28.6,27.6,00.0,37.7,30.3,08.5,0000.0,0002.73,0000.60,0000.28
2021-11-16 14:24:00,,0817.1,5.01,0.00,28.6,27.6,00.0,37.7,30.3,08.5,0000.0,0002.87,0000.61,0000.27
2021-11-16 14:25:00,,0817.5,5.00,0.00,28.6,27.6,00.0,37.7,30.3,08.4,0000.0,0002.21,0000.61,0000.27
2021-11-16 14:26:00,,0817.4,5.00,0.00,28.6,27.6,00.0,37.7,30.4,08.5,0000.0,0002.20,0000.61,0000.27
2021-11-16 14:27:00,,0817.3,4.99,0.00,28.6,27.6,00.0,37.7,30.4,08.2,0000.0,0002.21,0000.61,0000.27
2021-11-16 14:28:00,,0817.2,5.00,0.00,28.6,27.6,00.0,37.7,30.4,08.2,0000.0,0002.26,0000.61,0000.27
2021-11-16 14:29:00,,0817.2,4.99,0.00,28.6,27.6,00.0,37.7,30.4,08.4,0000.0,0002.01,0000.57,0000.27
2021-11-16 14:30:00,,0816.9,5.00,0.00,28.6,27.5,00.0,37.7,30.3,08.3,0000.0,0001.98,0000.58,0000.28
2021-11-16 14:31:00,,0816.9,5.01,0.00,28.6,27.5,00.0,37.7,30.3,08.3,0000.0,0001.85,0000.63,0000.28
2021-11-16 14:32:00,,0816.9,5.01,0.00,28.6,27.5,00.0,37.6,30.3,08.4,0000.0,0002.31,0000.66,0000.28
2021-11-16 14:33:00,,0816.9,4.99,0.00,28.6,27.5,00.0,37.6,30.3,08.4,0000.0,0002.27,0000.67,0000.28
2021-11-16 14:34:00,,0817.1,5.00,0.00,28.5,27.5,00.0,37.6,30.3,08.5,0000.0,0002.30,0000.70,0000.28
2021-11-16 14:35:00,,0817.1,5.00,0.00,28.5,27.5,00.0,37.6,30.3,08.6,0000.0,0002.31,0000.72,0000.29
2021-11-16 14:36:00,,0817.0,4.99,0.00,28.5,27.5,00.0,37.6,30.2,08.6,0000.0,0002.52,0000.80,0000.29
2021-11-16 14:37:00,,0816.9,4.99,0.00,28.5,27.5,00.0,37.6,30.3,08.7,0000.0,0002.59,0000.83,0000.29
2021-11-16 14:38:00,,0816.9,5.01,0.00,28.5,27.5,00.0,37.6,30.2,08.7,0000.0,0002.58,0000.83,0000.29
2021-11-16 14:39:00,,0817.0,5.01,0.00,28.5,27.5,00.0,37.6,30.2,08.7,0000.0,0002.61,0000.84,0000.29
2021-11-16 14:40:00,,0817.0,5.00,0.00,28.5,27.5,00.0,37.6,30.2,08.7,0000.0,0002.71,0000.85,0000.29
2021-11-16 14:41:00,,0817.1,5.00,0.00,28.5,27.5,00.0,37.6,30.2,08.8,0000.0,0002.92,0000.84,0000.29
2021-11-16 14:42:00,,0817.1,4.99,0.00,28.5,27.5,00.0,37.6,30.2,08.9,0000.0,0002.74,0000.79,0000.29
2021-11-16 14:43:00,,0817.1,5.00,0.00,28.5,27.5,00.0,37.6,30.2,08.9,0000.0,0002.29,0000.77,0000.29
2021-11-16 14:44:00,,0817.1,5.00,0.00,28.5,27.5,00.0,37.6,30.2,08.9,0000.0,0002.17,0000.74,0000.29
2021-11-16 14:45:00,,0817.2,4.99,0.00,28.4,27.5,00.0,37.6,30.2,08.9,0000.0,0002.19,0000.71,0000.29
2021-11-16 14:46:00,,0817.1,4.99,0.00,28.5,27.5,00.0,37.6,30.3,08.9,0000.0,0002.05,0000.70,0000.29
2021-11-16 14:47:00,,0817.1,5.00,0.00,28.5,27.4,00.0,37.6,30.2,08.7,0000.0,0001.70,0000.61,0000.29
2021-11-16 14:48:00,,0817.2,5.00,0.00,28.4,27.5,00.0,37.6,30.2,08.7,0000.0,0001.74,0000.61,0000.29
2021-11-16 14:49:00,,0817.3,5.01,0.00,28.4,27.5,00.0,37.5,30.2,08.8,0000.0,0001.77,0000.61,0000.29
2021-11-16 14:50:00,,0817.3,4.99,0.00,28.5,27.5,00.0,37.5,30.2,08.8,0000.0,0001.67,0000.61,0000.29
2021-11-16 14:51:00,,0817.1,4.99,0.00,28.5,27.5,00.0,37.5,30.2,08.6,0000.0,0001.63,0000.60,0000.29
2021-11-16 14:52:00,,0817.1,5.01,0.00,28.4,27.4,00.0,37.5,30.2,08.6,0000.0,0001.41,0000.59,0000.29
2021-11-16 14:53:00,,0817.2,5.00,0.00,28.4,27.4,00.0,37.5,30.2,08.4,0000.0,0001.28,0000.56,0000.29
2021-11-16 14:54:00,,0817.3,5.01,0.00,28.4,27.4,00.0,37.5,30.2,08.4,0000.0,0001.20,0000.53,0000.28
2021-11-16 14:55:00,,0817.3,4.99,0.00,28.4,27.4,00.0,37.5,30.2,08.7,0000.0,0001.17,0000.54,0000.28
2021-11-16 14:56:00,,0817.3,4.99,0.00,28.4,27.4,00.0,37.5,30.1,08.7,0000.0,0001.08,0000.53,0000.28
2021-11-16 14:57:00,,0817.3,5.01,0.00,28.4,27.5,00.0,37.5,30.2,08.7,0000.0,0001.04,0000.51,0000.28
2021-11-16 14:58:00,,0817.3,5.01,0.00,28.4,27.5,00.0,37.5,30.2,08.7,0000.0,0001.15,0000.52,0000.28
2021-11-16 14:59:00,,0817.5,4.99,0.00,28.4,27.4,00.0,37.5,30.2,08.7,0000.0,0001.06,0000.49,0000.28
